Flag for Germany Weather past 2 weeks in Varel, Lower Saxony, Germany

Now
54 °F

Drizzle. Broken clouds.


Feels Like: 50 °F
Forecast: 46 / 54 °F
Wind: 10 mph from Southwest

Location: Wittmundhaven

Current Time: Apr 25, 2015 at 10:50:06 AM

Latest Report: Apr 25, 2015 at 9:20 AM


Visibility: 4 mi

Pressure: 29.71 "Hg

Humidity: 82%

Dew point: 48 °F

Location of VarelLocation

Historic Weather in Varel — Graph

°F

Varel temperature yesterday

Maximum temperature yesterday: 66 °F (at 4:20 PM)
Minimum temperature yesterday: 41 °F (at 7:20 AM)
Average temperature yesterday: 51 °F

Past Weeks' High & Low Weather Summary

 TemperatureHumidityPressure
High66 °F (Apr 10, 4:20 PM)100% (Apr 18, 4:20 AM)30.48 "Hg (Apr 18, 4:20 AM)
Low34 °F (Apr 20, 5:20 AM)40% (Apr 24, 4:20 PM)29.68 "Hg (Apr 25, 6:20 AM)
Average48 °F76%30.17 "Hg
* Reported Apr 10 9:20 AM — Apr 25 9:20 AM, Varel, Weather by CustomWeather, © 2015

Note: Actual official high and low records may vary slightly from our data, if they occured in-between our weather recording intervals... More about our weather records

Advertising

Varel weather history for previous 24 hours

 ConditionsComfort  
Time TempWeatherWind HumidityBarometerVisibility
9:20 AM
Sat, Apr 25
54 °FDrizzle. Broken clouds.10 mph82%29.71 "Hg4 mi
8:20 AM52 °FPartly sunny.9 mph82%29.71 "Hg4 mi
7:20 AM50 °FPartly sunny.9 mph88%29.71 "Hg4 mi
6:20 AM50 °FPassing clouds.8 mph88%29.68 "Hg4 mi
5:20 AM52 °FPassing clouds.10 mph77%29.71 "Hg4 mi
4:20 AM52 °FPassing clouds.8 mph67%29.71 "Hg4 mi
3:20 AM52 °FPassing clouds.8 mph67%29.71 "Hg3 mi
2:20 AM52 °FFog.6 mph77%29.71 "Hg3 mi
1:20 AM50 °FFog.5 mph88%29.74 "Hg3 mi
12:20 AM50 °FFog.6 mph88%29.74 "Hg3 mi
11:20 PM
Fri, Apr 24
48 °FFog.3 mph87%29.77 "Hg4 mi
10:20 PM48 °FPassing clouds.3 mph87%29.77 "Hg4 mi
9:20 PM50 °FScattered clouds.3 mph88%29.80 "Hg5 mi
8:20 PM55 °FScattered clouds.5 mph72%29.80 "HgN/A
7:20 PM61 °FPassing clouds.8 mph55%29.80 "HgN/A
6:20 PM63 °FPassing clouds.12 mph52%29.80 "HgN/A
5:20 PM64 °FPassing clouds.12 mph49%29.80 "HgN/A
4:20 PM66 °FPassing clouds.14 mph40%29.80 "HgN/A
3:20 PM64 °FPartly sunny.17 mph43%29.83 "HgN/A
2:20 PM63 °FPartly sunny.12 mph52%29.86 "HgN/A
1:20 PM59 °FPartly sunny.12 mph59%29.86 "HgN/A
12:20 PM54 °FPartly sunny.8 mph72%29.89 "HgN/A
11:20 AM50 °FBroken clouds.7 mph82%29.92 "Hg4 mi
11:02 AM48 °FPartly sunny.6 mph87%29.92 "Hg4 mi
10:20 AM46 °FFog.7 mph93%29.92 "Hg2 mi
Weather by CustomWeather, © 2015

See weather overviewHow to use our weather pages